This is the latest recevied weather packets stored in our database for station/object DL1GHN-6. If no packets are shown the sender has not sent any weather packets the latest 1 day(s).
| Time | Temp. | Humidity | Pressure | Rain* | Wind** | Luminosity | Snow |
|---|---|---|---|---|---|---|---|
| 1777994118 | 18.89° C | 71% | 1007 hPa | 0 mm | 0.45 m/s, 5° | 72 W/m² | - |
| 1777993817 | 18.89° C | 73% | 1007 hPa | 0 mm | 0.45 m/s, 17° | 172 W/m² | - |
| 1777993517 | 18.89° C | 72% | 1007 hPa | 0 mm | 0.45 m/s, 63° | 207 W/m² | - |
| 1777993218 | 18.89° C | 74% | 1006.9 hPa | 0 mm | 0.89 m/s, 28° | 413 W/m² | - |
| 1777992918 | 18.89° C | 74% | 1006.9 hPa | 0 mm | 0.45 m/s, 40° | 274 W/m² | - |
| 1777992618 | 18.89° C | 75% | 1006.9 hPa | 0 mm | 0.45 m/s, 67° | 209 W/m² | - |
| 1777992318 | 18.33° C | 75% | 1007 hPa | 0 mm | 1.34 m/s, 59° | 241 W/m² | - |
| 1777992017 | 18.33° C | 75% | 1007 hPa | 0 mm | 0.89 m/s, 254° | 197 W/m² | - |
| 1777991719 | 18.89° C | 75% | 1007 hPa | 0 mm | 1.34 m/s, 355° | 197 W/m² | - |
| 1777991417 | 18.89° C | 74% | 1007 hPa | 0 mm | 1.34 m/s, 332° | 223 W/m² | - |
| 1777991117 | 18.89° C | 74% | 1007.1 hPa | 0 mm | 0.89 m/s, 227° | 209 W/m² | - |
| 1777990817 | 18.89° C | 74% | 1007.2 hPa | 0 mm | 0.45 m/s, 82° | 320 W/m² | - |
| 1777990517 | 18.89° C | 72% | 1007.2 hPa | 0 mm | 0.45 m/s, 355° | 381 W/m² | - |
| 1777990217 | 18.89° C | 73% | 1007.2 hPa | 0 mm | 0.89 m/s, 332° | 253 W/m² | - |
| 1777989918 | 19.44° C | 71% | 1007.2 hPa | 0 mm | 0.45 m/s, 83° | 246 W/m² | - |
| 1777989618 | 19.44° C | 72% | 1007.2 hPa | 0 mm | 0.89 m/s, 5° | 475 W/m² | - |
| 1777989317 | 19.44° C | 72% | 1007.3 hPa | 0 mm | 1.79 m/s, 20° | 605 W/m² | - |
| 1777989017 | 18.89° C | 76% | 1007.5 hPa | 0 mm | 0.45 m/s, 335° | 668 W/m² | - |
| 1777988718 | 18.33° C | 75% | 1007.5 hPa | 0 mm | 0.89 m/s, 100° | 285 W/m² | - |
| 1777988418 | 18.33° C | 76% | 1007.6 hPa | 0 mm | 0.89 m/s, 325° | 401 W/m² | - |
| 1777988117 | 18.89° C | 74% | 1007.6 hPa | 0 mm | 0.89 m/s, 347° | 330 W/m² | - |
| 1777987819 | 18.89° C | 74% | 1007.7 hPa | 0 mm | 0.89 m/s, 63° | 499 W/m² | - |
| 1777987518 | 18.89° C | 76% | 1007.7 hPa | 0 mm | 0.89 m/s, 301° | 350 W/m² | - |
| 1777987219 | 18.89° C | 76% | 1007.8 hPa | 0 mm | 0.89 m/s, 355° | 443 W/m² | - |
| 1777986917 | 18.33° C | 77% | 1007.7 hPa | 0 mm | 0.89 m/s, 318° | 452 W/m² | - |
* Rain latest hour (hover to see other rain measurements)
** Current wind speed in m/s (hover to see current wind gust speed)